CW8524 Weather Reports


Display with metric or nautical units.
time (UTC)temp
F
wind
direction
speed
MPH
gust
MPH
rain 1hr
in
rain 24hr
in
rain mn
in
humidity
%
barometer
mb
20220703174509 85 179 16.0 24.0 0.00 0.04 0.00 43 1021.9
20220703173010 84 171 16.0 25.0 0.00 0.04 0.00 45 1022.1
20220703171504 83 150 12.0 18.0 0.00 0.04 0.00 50 1022.1
20220703170100 81 188 14.0 22.0 0.00 0.04 0.00 51 1022.2
20220703164554 80 167 12.0 18.0 0.00 0.04 0.00 53 1022.4
20220703163049 79 183 11.0 17.0 0.00 0.04 0.00 55 1022.4
20220703161545 78 158 9.0 15.0 0.00 0.04 0.00 57 1022.3
20220703160041 77 159 11.0 18.0 0.00 0.04 0.00 58 1022.6
20220703154538 76 133 8.0 12.0 0.00 0.04 0.00 62 1022.7
20220703153036 75 138 9.0 13.0 0.00 0.04 0.00 64 1022.8
20220703151528 74 142 5.0 15.0 0.00 0.04 0.00 66 1023.0
20220703150023 73 142 9.0 14.0 0.00 0.04 0.00 66 1023.1
20220703144519 72 165 8.0 12.0 0.00 0.04 0.00 68 1023.1
20220703143018 71 147 5.0 11.0 0.00 0.04 0.00 70 1023.1
20220703141511 71 154 6.0 11.0 0.00 0.04 0.00 70 1023.1
20220703140007 70 163 2.0 9.0 0.00 0.04 0.00 73 1023.1
20220703134505 69 168 3.0 8.0 0.00 0.04 0.00 75 1023.1
20220703133003 69 152 3.0 7.0 0.00 0.04 0.00 76 1023.1
20220703131601 68 189 2.0 6.0 0.00 0.04 0.00 80 1023.1
20220703130106 67 206 1.0 3.0 0.00 0.04 0.00 83 1023.0
20220703124602 66 199 1.0 3.0 0.00 0.04 0.00 83 1022.8
20220703123104 65 207 0.0 5.0 0.00 0.04 0.00 84 1022.8
20220703121542 65 223 3.0 8.0 0.00 0.04 0.00 85 1023.0
20220703120039 64 234 2.0 5.0 0.00 0.04 0.00 85 1022.9
20220703114537 65 221 3.0 5.0 0.00 0.04 0.00 85 1022.8
20220703113036 65 229 2.0 4.0 0.00 0.04 0.00 85 1022.7
20220703111534 65 229 1.0 4.0 0.00 0.04 0.00 85 1022.7
20220703110034 65 229 1.0 3.0 0.00 0.05 0.00 84 1022.7
20220703104534 65 231 2.0 4.0 0.00 0.05 0.00 85 1022.7
20220703103032 65 245 2.0 5.0 0.00 0.05 0.00 85 1022.7
20220703101533 65 200 2.0 4.0 0.00 0.05 0.00 86 1022.7
20220703100032 65 124 0.0 3.0 0.00 0.05 0.00 87 1022.7
20220703094530 65 96 1.0 3.0 0.00 0.05 0.00 88 1022.7
20220703093030 65 85 0.0 2.0 0.00 0.05 0.00 88 1022.7
20220703091529 66 85 0.0 2.0 0.00 0.05 0.00 88 1022.6
20220703090041 66 85 0.0 2.0 0.00 0.05 0.00 87 1022.9
20220703084530 66 85 0.0 2.0 0.00 0.05 0.00 87 1022.6
20220703083025 66 85 0.0 2.0 0.00 0.05 0.00 86 1022.8
20220703081529 66 85 0.0 4.0 0.00 0.05 0.00 86 1022.9
20220703080024 67 74 0.0 2.0 0.00 0.05 0.00 86 1022.9
20220703074520 67 48 0.0 2.0 0.00 0.05 0.00 84 1022.9
20220703073020 68 47 1.0 3.0 0.00 0.05 0.00 83 1023.1
20220703071518 68 29 1.0 4.0 0.00 0.05 0.00 80 1023.1
20220703070017 69 29 1.0 3.0 0.00 0.06 0.00 77 1023.2
20220703064516 69 29 0.0 0.0 0.00 0.06 0.00 75 1023.2
20220703063015 69 29 0.0 1.0 0.00 0.06 0.00 73 1023.2
20220703061514 69 14 0.0 1.0 0.00 0.06 0.00 74 1023.1
20220703060013 69 14 0.0 2.0 0.00 0.08 0.00 73 1023.1
20220703054510 68 14 2.0 4.0 0.00 0.08 0.00 78 1023.1
20220703053016 67 343 0.0 4.0 0.00 0.08 0.00 83 1023.1
20220703051511 67 344 2.0 4.0 0.00 0.08 0.00 83 1023.3
20220703050002 67 283 1.0 8.0 0.00 0.08 0.08 82 1023.6
20220703044505 67 254 3.0 7.0 0.00 0.08 0.08 82 1023.5
20220703043002 67 17 3.0 5.0 0.00 0.08 0.08 80 1023.1
20220703041501 67 36 2.0 6.0 0.00 0.08 0.08 80 1022.8
20220703040059 67 15 3.0 9.0 0.00 0.15 0.08 81 1022.6
20220703034559 66 63 3.0 10.0 0.00 0.15 0.08 83 1022.4
20220703033058 66 50 6.0 11.0 0.01 0.15 0.08 82 1022.1
20220703031557 67 46 5.0 10.0 0.01 0.15 0.08 81 1022.0
20220703030057 66 29 6.0 12.0 0.01 0.15 0.08 81 1021.7
20220703024556 65 22 4.0 10.0 0.02 0.15 0.08 85 1021.7
20220703023057 65 355 6.0 14.0 0.02 0.14 0.07 87 1021.8
20220703021555 66 336 6.0 15.0 0.03 0.14 0.07 87 1022.2
20220703020054 66 17 3.0 10.0 0.03 0.14 0.07 85 1022.8
20220703014554 66 355 4.0 14.0 0.02 0.13 0.06 83 1023.0
20220703013103 68 294 6.0 13.0 0.00 0.11 0.04 81 1023.7
20220703011552 69 16 3.0 10.0 0.00 0.11 0.04 78 1023.4
20220703010051 70 327 2.0 6.0 0.00 0.11 0.04 74 1022.9
20220703004553 70 268 1.0 6.0 0.00 0.11 0.04 72 1022.3
20220703003052 74 44 6.0 11.0 0.00 0.11 0.04 65 1021.7
20220703001548 75 37 8.0 17.0 0.00 0.11 0.04 61 1020.3
20220703000057 78 5 8.0 17.0 0.00 0.11 0.04 56 1020.2
20220702234555 79 319 1.0 8.0 0.00 0.11 0.04 54 1019.8
20220702233048 81 107 7.0 12.0 0.00 0.11 0.04 44 1019.6
20220702231546 79 107 12.0 25.0 0.00 0.11 0.04 47 1019.6
20220702230051 86 162 15.0 26.0 0.00 0.11 0.04 38 1019.8
20220702224545 91 258 4.0 9.0 0.00 0.11 0.04 31 1019.3
20220702223043 90 254 4.0 15.0 0.00 0.11 0.04 30 1019.3
20220702221541 90 198 8.0 16.0 0.00 0.11 0.04 30 1019.6
20220702220040 90 194 9.0 14.0 0.00 0.11 0.04 31 1019.6
20220702214538 90 156 7.0 16.0 0.00 0.11 0.04 32 1019.9
20220702213036 90 242 6.0 13.0 0.00 0.11 0.04 33 1019.9
20220702211544 89 55 2.0 9.0 0.00 0.11 0.04 34 1019.9
20220702210031 89 279 5.0 14.0 0.00 0.11 0.04 35 1020.1
20220702204533 88 145 6.0 15.0 0.00 0.11 0.04 35 1020.4
20220702203027 88 183 6.0 10.0 0.00 0.11 0.04 35 1020.5
20220702201527 88 231 7.0 19.0 0.00 0.11 0.04 35 1020.7
20220702200025 88 222 3.0 11.0 0.00 0.11 0.04 34 1020.9
20220702194527 88 148 10.0 18.0 0.00 0.11 0.04 34 1021.1
20220702193023 88 211 3.0 11.0 0.00 0.11 0.04 36 1021.1
20220702191521 87 188 5.0 9.0 0.00 0.11 0.04 36 1021.3
20220702190019 87 165 3.0 10.0 0.00 0.11 0.04 37 1021.5
20220702184530 86 128 7.0 12.0 0.00 0.11 0.04 37 1021.6
20220702183014 85 240 0.0 8.0 0.00 0.11 0.04 40 1021.6
20220702181523 84 166 2.0 7.0 0.00 0.11 0.04 43 1021.7
20220702180009 83 159 6.0 9.0 0.00 0.11 0.04 45 1021.9